OneWeb SL0247

operational
NORAD ID: 48777 Int'l Des: 2021-045 Owner: ONEWEBN Country: UK Constellation: oneweb
LEOCIRCULARPOLARONEWEB_TYPE

About OneWeb SL0247

Description loading...

Live Position

Loading 3D Globe...

Upcoming Passes

Altitude History

Altitude vs Time

uPlot chart will show altitude changes over time

Two-Line Element Set

1 48777U 21045L 26037.10052262 -.00000098 00000-0 -29354-3 0 9996
2 48777 87.8984 285.3899 0000655 70.3963 289.7238 13.15550055227175
Epoch: Feb 6, 2026 • Age: 8 hours

Current Status

Altitude 1207.7 km
Velocity 7.25 km/s
Sub-Earth Point -13.73°S, 168.83°E
Launch Date May 28, 2021
Age 4.6 years
Type internet

Technical Details

Classification Payload
Mass 148.00 kg
Dry Mass 140.00 kg
Total Mass 148.00 kg
Length 1.30 m
Diameter 1.00 m
Span 5.00 m
Shape Trapezoid+2 pan
Manufacturer ONEWUS
Bus Type ARROW
Phase Status In Orbit
Owner/State ONEWEBN/UK

Large Constellations

Loading constellations...